Gallup, NM

1:39 AM MST on November 21, 2017 (GMT -0700)
Gallup Municipal

Weather History for KGUP - September, 2013

Change the Weather History Date:

Thursday, September 5, 2013

  Actual Average Record
Temperature  
Mean Temperature 68 °F -  
Max Temperature 88 °F 79 °F 91 °F (2017)
Min Temperature 51 °F 46 °F 36 °F (1992)
Cooling Degree Days 4    
Growing Degree Days 18 (Base 50)    
Moisture  
Dew Point 41 °F    
Average Humidity 37    
Maximum Humidity 68    
Minimum Humidity 18    
Precipitation  
Precipitation 0.00 in - - ()
Sea Level Pressure  
Sea Level Pressure 29.84 in    
Wind  
Wind Speed 2 mph (ESE)    
Max Wind Speed 10 mph    
Max Gust Speed 17 mph    
Visibility 10 miles    
Events      
Averages and records for this station are not official NWS values.
T = Trace of Precipitation, MM = Missing Value Source: NWS Daily Summary

Daily Weather History Graph

Daily Weather History Graph

Search for Another Location

Airport or City:

Trip Planner

Search our weather history database for the weather conditions in past years. The results will help you decide how hot, cold, wet, or windy it might be!

Date:

Astronomy

Sep. 05, 2013 Rise Set
Actual Time 6:50 AM MDT 7:36 PM MDT
Civil Twilight 6:24 AM MDT 8:02 PM MDT
Nautical Twilight 5:54 AM MDT 8:32 PM MDT
Astronomical Twilight 5:22 AM MDT 9:03 PM MDT
Moon 7:03 AM MDT (9/5) 7:33 PM MDT (9/5)
Length of Visible Light 13h 37m
Length of Day
12h 45m
New Moon, 0% of the Moon is Illuminated
Sep 5
New Moon
Sep 12
First Quarter
Sep 19
Full
Sep 26
Last Quarter
Oct 4
New

Hourly Weather History & Observations

Time (MDT) Temp. Dew Point Humidity Pressure Visibility Wind Dir Wind Speed Gust Speed Precip Events Conditions
12:53 AM 64.9 °F 44.1 °F 47% 29.83 in 10.0 mi Calm Calm - N/A   Clear
1:53 AM 61.0 °F 43.0 °F 52% 29.87 in 10.0 mi Calm Calm - N/A   Clear
2:53 AM 61.0 °F 43.0 °F 52% 29.83 in 10.0 mi East 3.5 mph - N/A   Clear
3:53 AM 57.0 °F 44.1 °F 62% 29.84 in 10.0 mi NE 3.5 mph - N/A   Clear
4:53 AM 57.0 °F 43.0 °F 59% 29.84 in 10.0 mi South 3.5 mph - N/A   Clear
5:53 AM 55.0 °F 43.0 °F 64% 29.88 in 10.0 mi Calm Calm - N/A   Clear
6:53 AM 51.1 °F 41.0 °F 68% 29.93 in 10.0 mi Calm Calm - N/A   Clear
7:53 AM 57.0 °F 44.1 °F 62% 29.94 in 10.0 mi Calm Calm - N/A   Clear
8:53 AM 66.0 °F 46.0 °F 48% 29.91 in 10.0 mi Calm Calm - N/A   Clear
9:53 AM 71.1 °F 46.9 °F 42% 29.90 in 10.0 mi Calm Calm - N/A   Clear
10:53 AM 79.0 °F 45.0 °F 30% 29.86 in 10.0 mi WSW 6.9 mph - N/A   Clear
11:53 AM 81.0 °F 45.0 °F 28% 29.83 in 10.0 mi Calm Calm - N/A   Clear
12:53 PM 82.9 °F 41.0 °F 23% 29.81 in 10.0 mi South 6.9 mph - N/A   Clear
1:53 PM 86.0 °F 37.9 °F 18% 29.80 in 10.0 mi Variable 5.8 mph - N/A   Clear
2:53 PM 86.0 °F 37.0 °F 18% 29.77 in 10.0 mi Variable 3.5 mph - N/A   Scattered Clouds
3:53 PM 84.9 °F 39.0 °F 20% 29.79 in 10.0 mi NE 5.8 mph 17.3 mph N/A   Mostly Cloudy
4:53 PM 84.0 °F 39.0 °F 20% 29.78 in 10.0 mi East 10.4 mph - N/A   Mostly Cloudy
5:53 PM 84.9 °F 37.9 °F 19% 29.79 in 10.0 mi SE 3.5 mph - N/A   Mostly Cloudy
6:53 PM 82.9 °F 37.9 °F 20% 29.83 in 10.0 mi ESE 6.9 mph - N/A   Partly Cloudy
7:53 PM 78.1 °F 39.0 °F 25% 29.82 in 10.0 mi East 4.6 mph - N/A   Mostly Cloudy
8:53 PM 72.0 °F 37.9 °F 29% 29.83 in 10.0 mi South 4.6 mph - N/A   Scattered Clouds
9:53 PM 72.0 °F 35.1 °F 26% 29.81 in 10.0 mi Calm Calm - N/A   Clear
10:53 PM 66.0 °F 35.1 °F 32% 29.81 in 10.0 mi East 3.5 mph - N/A   Clear
11:53 PM 63.0 °F 35.1 °F 35% 29.83 in 10.0 mi Calm Calm - N/A   Partly Cloudy